Skip Page Navigation
NASA JPL Caltech
NASA Logo - Jet Propulsion Laboratory + View the NASA Portal
+ Near-Earth Object (NEO) Program
Search JPL
JPL Home Earth Solar System Stars & Galaxies Technology
JPL Solar System Dynamics
BODIES ORBITS EPHEMERIDES TOOLS PHYSICAL DATA DISCOVERY FAQ SITE MAP
JPL Small-Body Database Browser
Search: [ help ]  
23284 Celik (2000 YD118)
Classification: Main-belt Asteroid          SPK-ID: 2023284
Ephemeris | Orbit Diagram | Orbital Elements | Physical Parameters | Discovery Circumstances | Close-Approach Data ]

[ show orbit diagram ]
Orbital Elements at Epoch 2457000.5 (2014-Dec-09.0) TDB
Reference: JPL 10 (heliocentric ecliptic J2000)
 Element Value Uncertainty (1-sigma)   Units 
e .166997060101163 4.631e-08  
a 2.434482159742078 1.4427e-08 AU
q 2.027930796196421 1.1642e-07 AU
i 3.232370205306363 5.6333e-06 deg
node 69.51346058123153 0.00011273 deg
peri 190.0499256515931 0.00011474 deg
M 121.3067114980106 2.1591e-05 deg
tp 2456532.990274123634
(2013-Aug-28.49027412)
8.1595e-05 JED
period 1387.421184179507
3.80
1.2333e-05
3.377e-08
d
yr
n .259474198682426 2.3066e-09 deg/d
Q 2.841033523287735 1.6837e-08 AU
  Orbit Determination Parameters
   # obs. used (total)      774  
   data-arc span      15985 days (43.76 yr)  
   first obs. used      1971-04-16  
   last obs. used      2015-01-20  
   planetary ephem.      DE431  
   SB-pert. ephem.      SB431-BIG16  
   condition code      0  
   fit RMS      .53317  
   data source      ORB  
   producer      Otto Matic  
   solution date      2015-Mar-09 15:11:28  

Additional Information
 Earth MOID = 1.0143 AU 
 T_jup = 3.484 
[ show covariance matrix ]

Ephemeris | Orbit Diagram | Orbital Elements | Physical Parameters | Discovery Circumstances | Close-Approach Data ]

Physical Parameter Table
Parameter Symbol Value Units Sigma Reference Notes
absolute magnitude H 15.1 mag n/a MPO313604  

23284 Celik           Discovered 2000 Dec. 30 by the Lincoln Laboratory Near-Earth Asteroid Research Team in Socorro.
Burak Celik (b. 1989) was awarded first place in the 2007 Intel International Science and Engineering Fair for his chemistry team project. He attends the FMV Isik High School, Istanbul, Turkey.
NOTE: some special characters may not display properly (any characters within {} are an attempt to place the proper accent above a character)
Reference: 20070828/MPCPages.arcLast Updated: 2007-08-30

[ show close-approach data ]
Alternate Designations
 2000 YD118 = 1998 MY20 = 1999 VL176 = 4823 T-1 
Ephemeris | Orbit Diagram | Orbital Elements | Physical Parameters | Discovery Circumstances | Close-Approach Data ]
ABOUT SSD CREDITS/AWARDS PRIVACY/COPYRIGHT GLOSSARY LINKS
FirstGov 2015-May-04 18:10 UT
(server date/time)  
NASA Home Page
Site Manager:   Ryan S. Park
Webmaster  Alan B. Chamberlin